Regional Weather Roundup
Issued by NWS

Home | Current Version | Previous Version | Text Only | Print | Product List | Glossary On
Versions: 1 2 3 4 5 6 7 8 9 10 11 12 13 14 15 16 17 18 19 20 21 22 23 24 25 26 27 28 29 30 31 32 33 34 35 36 37 38 39 40 41 42 43 44 45 46 47 48 49 50
000
ASUS43 KLOT 050321
RWRIL

ILLINOIS REGIONAL WEATHER ROUNDUP
NATIONAL WEATHER SERVICE CHICAGO/ROMEOVILLE IL
1000 PM CDT MON MAY 04 2015

NOTE: "FAIR" INDICATES FEW OR NO CLOUDS BELOW 12,000 FEET WITH NO
SIGNIFICANT WEATHER AND/OR OBSTRUCTIONS TO VISIBILITY.

* THESE STATIONS ARE NOT UNDER NWS QUALITY CONTROL. THEY ALSO MAY NOT
  REPORT WEATHER SUCH AS PRECIPITATION OR FOG.

ILZ001-002-007-009-015-016-024-050400-
NORTHWEST ILLINOIS

CITY           SKY/WX    TMP DP  RH WIND       PRES   REMARKS
MOLINE         CLOUDY    66  61  84 E9        30.10R
STERLING*      CLOUDY    63  57  82 E13       30.14R THUNDER
SAVANNA*       RAIN      67  61  80 S6        30.14R
$$

ILZ003-004-008-010-011-017-018-050400-
NORTH CENTRAL ILLINOIS

CITY           SKY/WX    TMP DP  RH WIND       PRES   REMARKS
ROCKFORD       CLOUDY    61  42  49 E15       30.16S
FREEPORT*      CLOUDY    61  51  70 E15G22    30.16S
ROCHELLE*      PTCLDY    60  52  75 E12       30.15S
DE KALB*       MOCLDY    56  47  72 E13       30.17F
PERU*          LGT RAIN  65  59  81 E18       30.14R
$$

ILZ005-006-012>014-019>023-050400-
NORTHEAST ILLINOIS

CITY           SKY/WX    TMP DP  RH WIND       PRES   REMARKS
CHICAGO-OHARE  CLOUDY    55  39  54 NE7       30.18S
CHICAGO-MIDWAY MOCLDY    58  46  64 NE7       30.18R
AURORA         CLOUDY    60  47  61 NE12      30.17R
LANSING*       MOCLDY    53  48  83 NE7       30.19R
JOLIET*        CLOUDY    62  55  77 NE9       30.16S
WAUKEGAN       PTCLDY    49  38  65 N3        30.20R
DUPAGE AIRPORT CLOUDY    57  43  59 NE8       30.18R
KANKAKEE*      CLOUDY    62  60  93 NE7       30.15S
WHEELING       CLOUDY    53  37  54 NE5       30.21R
MORRIS*        CLOUDY    62  54  74 E9        30.13S
ROMEOVILLE*    CLOUDY    58  49  72 E10       30.17R
NORTHERLY ISL    N/A     53  38  56 N7          N/A
$$

LMZ740>746-050400-
SOUTHERN LAKE MICHIGAN

STATION/POSITION SKY/WX   TEMP    WIND        PRES    VSBY  WAVE
                          AIR SEA DIR/SP/G                  HT/PER
                          (F)     (DEG/KT/KT) (MB)    (MI)  (FT/S)
HARRISON CRIB              49     350/  7/  7   N/A
BURNHAM HARBOR             53     350/  5/  8   N/A
CALUMET HARBOR             49     350/  5/  7   N/A
BURNS HARBOR               52      60/  8/  9 1022.4R
MICHIGAN CITY              53      30/  9/ 10   N/A
MICHIGAN CITY 6N           51 50   60/  6/  6   N/A           1
ST. JOSEPH                 52 49   80/  2/  4   N/A           1
$$

ILZ025>027-034>036-040-047-049-050-058-095>099-050400-
WEST-CENTRAL ILLINOIS

CITY           SKY/WX    TMP DP  RH WIND       PRES   REMARKS
QUINCY         LGT RAIN  69  62  78 S8        30.08R
GALESBURG*     CLOUDY    67  63  87 E7        30.09R
MACOMB*        TSTM      65  63  96 SE6       30.12R
JACKSONVILLE*  MOCLDY    72  60  65 E6        30.08S
PITTSFIELD*    CLOUDY    74  59  61 CALM      30.08S
$$

ILZ028>032-037-038-041>044-048-051>054-059>061-050400-
CENTRAL ILLINOIS

CITY           SKY/WX    TMP DP  RH WIND       PRES   REMARKS
PONTIAC        CLOUDY    66  64  92 E9        30.14R
BLOOMINGTON    LGT RAIN  66  64  94 SE8       30.14R FOG
DECATUR        LGT RAIN  69  63  81 E12       30.11R
PEORIA         CLOUDY    68  64  87 E9        30.11R FOG
LACON*         CLOUDY    66  63  87 E9        30.11S
LINCOLN*       TSTM      70  64  80 N9G21     30.12R
SPRINGFIELD    CLOUDY    72  61  68 N12       30.10R
TAYLORVILLE    CLOUDY    73  57  56 S8        30.10R
$$

ILZ033-039-045-046-055>057-062-063-050400-
EAST-CENTRAL ILLINOIS

CITY           SKY/WX    TMP DP  RH WIND       PRES   REMARKS
CHAMPAIGN      CLOUDY    65  61  87 E10       30.13S
DANVILLE*      MOCLDY    62  61  95 SE6       30.12F
RANTOUL*       CLOUDY    67  62  86 E8        30.14R
MATTOON        MOCLDY    71  57  61 S6        30.12R
PARIS*         CLOUDY    67  60  77 E5        30.15R THUNDER
$$

ILZ079-100>102-050400-
SOUTHWEST ILLINOIS

CITY           SKY/WX    TMP DP  RH WIND       PRES   REMARKS
ALTON          CLOUDY    72 N/A N/A SE6       30.08S
BELLEVILLE     CLEAR     69  58  67 SE5       30.10R
CAHOKIA*       CLEAR     73  54  51 S3        30.10R
SPARTA*        CLEAR     71  55  56 SE6       30.14R
$$

ILZ064>066-069>071-074>076-080>082-084>086-088>090-092>094-050400-
SOUTH-CENTRAL ILLINOIS

CITY           SKY/WX    TMP DP  RH WIND       PRES   REMARKS
CARBONDALE     CLEAR     69  53  56 S6        30.14R
CAIRO*         CLEAR     73  54  51 S7        30.15R
EFFINGHAM*     PTCLDY    71  53  54 SE6       30.14S
MARION         CLEAR     70  55  60 S5        30.15R
MT. VERNON     PTCLDY   N/A N/A N/A CALM      30.16R
CENTRALIA*     PTCLDY    69  55  60 S7        30.14R
SALEM*         PTCLDY    75  55  49 S5        30.14R
METROPOLIS*    CLEAR     72  56  56 S3        30.15R
$$

ILZ067-068-072-073-078-083-087-091-050400-
SOUTHEAST ILLINOIS

CITY           SKY/WX    TMP DP  RH WIND       PRES   REMARKS
LAWRENCEVILLE  PTCLDY    68  56  65 S9        30.15R
FLORA*         PTCLDY    69  55  61 S7        30.15R
FAIRFIELD*     MOCLDY    71  56  57 CALM      30.14R
HARRISBURG*    CLEAR     69  56  62 S3        30.17R
ROBINSON*      PTCLDY    68  56  64 S6        30.15S
CARMI*         CLEAR     67  54  62 S6        30.15R
$$

ABBREVIATIONS USED IN REMARKS
   TC - TEMPERATURE IN CELSIUS
  WCI - WIND CHILL INDEX
   HX - HEAT INDEX
  VSB - VISIBILITY
$$




USA.gov is the U.S. government's official web portal to all federal, state and local government web resources and services.